Starlink 11429

operational
NORAD ID: 62061 Int'l Des: 2024-217 Owner: SPXS Country: US Constellation: starlink
LEOCIRCULAR

关于 Starlink 11429

正在加载描述...

实时位置

正在加载3D地球...

即将过境

高度历史

Altitude vs Time

uPlot chart will show altitude changes over time

两行轨道根数

1 62061U 24217E 25351.62721814 .00083412 00000-0 68532-3 0 9993
2 62061 53.1577 115.8733 0001039 97.0193 263.0943 15.69749379 62280
Epoch: Dec 17, 2025 • Age: 21 hours

当前状态

高度 373.9 km
速度 7.68 km/s
星下点 -42.14°S, 158.72°E
发射日期 Nov 24, 2024
运行时间 1 years
类型 internet

技术详情

分类 Payload
质量 960.00 kg
干质量 910.00 kg
总质量 960.00 kg
长度 0.30 m
直径 4.10 m
跨度 29.00 m
形状 Box + pan
制造商 SPXS
平台类型 Starlink V2MD
阶段状态 In Orbit
所有者/国家 SPXS/US

大型星座

Loading constellations...